Jefferson, NC

12:38 PM EST on November 22, 2019 (GMT -0500)
Ashe County

Weather History for KGEV - September, 2019

Change the Weather History Date:

Monday, September 30, 2019

  Actual Average Record
Temperature  
Mean Temperature 68 °F -  
Max Temperature 80 °F 67 °F 80 °F (1986)
Min Temperature 57 °F 45 °F 30 °F (1992)
Cooling Degree Days 4    
Growing Degree Days 18 (Base 50)    
Moisture  
Dew Point 63 °F    
Average Humidity 89    
Maximum Humidity 100    
Minimum Humidity 59    
Precipitation  
Precipitation 0.03 in - - ()
Sea Level Pressure  
Sea Level Pressure 30.30 in    
Wind  
Wind Speed 1 mph ()    
Max Wind Speed 12 mph    
Max Gust Speed 17 mph    
Visibility 7.1 miles    
Events Fog , Rain , Thunderstorm    
Averages and records for this station are not official NWS values.
T = Trace of Precipitation, MM = Missing Value Source: Averaged Metar Reports

Daily Weather History Graph

Daily Weather History Graph

Search for Another Location

Airport or City:

Astronomy

Sep. 30, 2019 Rise Set
Actual Time 7:19 AM EDT 7:10 PM EDT
Civil Twilight 6:54 AM EDT 7:36 PM EDT
Nautical Twilight 6:24 AM EDT 8:06 PM EDT
Astronomical Twilight 5:54 AM EDT 8:36 PM EDT
Moon 9:19 AM EDT (9/30) 8:49 PM EDT (9/30)
Length of Visible Light 12h 42m
Length of Day
11h 51m
Waxing Crescent, 5% of the Moon is Illuminated
Sep 30
Waxing Crescent
Oct 5
First Quarter
Oct 13
Full
Oct 21
Last Quarter
Oct 27
New

Hourly Weather History & Observations

Time (EDT) Temp. Heat Index Dew Point Humidity Pressure Visibility Wind Dir Wind Speed Gust Speed Precip Events Conditions
12:15 AM 63.5 °F - 63.1 °F 99% 30.35 in 10.0 mi Calm Calm - N/A   Clear
12:35 AM 63.1 °F - 63.0 °F 99% 30.35 in 5.0 mi Calm Calm - N/A   Clear
12:55 AM 62.8 °F - 62.6 °F 99% 30.34 in 7.0 mi Calm Calm - N/A   Clear
1:15 AM 62.1 °F - 61.9 °F 99% 30.34 in 1.2 mi Calm Calm - N/A   Scattered Clouds
1:35 AM 62.8 °F - 62.6 °F 99% 30.34 in 10.0 mi SW 3.5 mph - N/A   Scattered Clouds
1:55 AM 62.6 °F - 62.1 °F 98% 30.34 in 7.0 mi Calm Calm - N/A   Clear
2:15 AM 60.3 °F - 60.3 °F 100% 30.34 in 0.2 mi Calm Calm - N/A Fog Fog
2:35 AM 60.8 °F - 60.8 °F 100% 30.33 in 7.0 mi Calm Calm - N/A   Scattered Clouds
2:55 AM 61.9 °F - 61.9 °F 100% 30.32 in 10.0 mi Calm Calm - N/A   Clear
3:15 AM 60.6 °F - 60.6 °F 100% 30.31 in 0.5 mi Calm Calm - N/A Fog Fog
3:35 AM 60.3 °F - 60.3 °F 100% 30.31 in 0.5 mi Calm Calm - N/A Fog Fog
3:55 AM 59.2 °F - 59.2 °F 100% 30.31 in 0.2 mi WNW 3.5 mph - N/A Fog Fog
4:15 AM 61.5 °F - 61.5 °F 100% 30.31 in 5.0 mi Calm Calm - N/A   Scattered Clouds
4:35 AM 61.9 °F - 61.9 °F 100% 30.31 in 10.0 mi Calm Calm - N/A   Clear
5:15 AM 58.5 °F - 58.5 °F 100% 30.32 in 0.2 mi Calm Calm - N/A Fog Fog
5:35 AM 58.6 °F - 58.6 °F 100% 30.32 in 0.5 mi Calm Calm - N/A Fog Fog
5:55 AM 59.0 °F - 59.0 °F 100% 30.31 in 0.8 mi Calm Calm - N/A   Overcast
6:15 AM 58.5 °F - 58.5 °F 100% 30.32 in 0.5 mi Calm Calm - N/A Fog Fog
6:35 AM 58.3 °F - 58.3 °F 100% 30.32 in 0.2 mi Calm Calm - N/A Fog Fog
6:55 AM 57.9 °F - 57.9 °F 100% 30.33 in 0.5 mi Calm Calm - N/A Fog Fog
7:15 AM 57.6 °F - 57.6 °F 100% 30.33 in 0.2 mi Calm Calm - N/A Fog Fog
7:35 AM 57.6 °F - 57.6 °F 100% 30.34 in 0.2 mi Calm Calm - N/A Fog Fog
7:55 AM 58.3 °F - 58.3 °F 100% 30.34 in 7.0 mi Calm Calm - N/A   Mostly Cloudy
8:15 AM 59.5 °F - 59.5 °F 100% 30.35 in 7.0 mi Calm Calm - N/A   Scattered Clouds
8:35 AM 60.8 °F - 60.8 °F 100% 30.34 in 7.0 mi Calm Calm - N/A   Clear
8:55 AM 62.2 °F - 62.2 °F 100% 30.35 in 7.0 mi Calm Calm - N/A   Scattered Clouds
9:15 AM 63.3 °F - 63.3 °F 100% 30.35 in 7.0 mi Calm Calm - N/A   Scattered Clouds
9:35 AM 62.8 °F - 62.6 °F 99% 30.35 in 0.5 mi Calm Calm - N/A Fog Fog
10:15 AM 65.8 °F - 64.8 °F 96% 30.35 in 10.0 mi Calm Calm - 0.01 in   Mostly Cloudy
10:35 AM 67.1 °F - 65.7 °F 95% 30.35 in 10.0 mi Calm Calm - 0.01 in   Overcast
10:55 AM 67.3 °F - 65.8 °F 95% 30.35 in 10.0 mi Calm Calm - 0.01 in   Overcast
11:35 AM 72.9 °F - 66.9 °F 82% 30.34 in 10.0 mi Calm Calm - N/A   Scattered Clouds
11:55 AM 74.5 °F - 66.7 °F 77% 30.34 in 10.0 mi Calm Calm - N/A   Scattered Clouds
12:15 PM 77.0 °F - 66.9 °F 71% 30.33 in 10.0 mi Calm Calm - N/A   Clear
12:35 PM 77.5 °F - 66.2 °F 68% 30.33 in 10.0 mi North 4.6 mph - N/A   Mostly Cloudy
12:55 PM 76.5 °F - 67.3 °F 73% 30.32 in 10.0 mi Calm Calm - N/A   Overcast
1:15 PM 77.2 °F - 65.7 °F 67% 30.31 in 10.0 mi Calm Calm - N/A   Scattered Clouds
1:35 PM 79.9 °F - 66.0 °F 62% 30.31 in 10.0 mi Calm Calm - N/A   Mostly Cloudy
1:55 PM 80.6 °F 82.4 °F 64.9 °F 59% 30.29 in 10.0 mi West 10.4 mph - N/A   Overcast
2:15 PM 78.8 °F - 68.2 °F 70% 30.29 in 10.0 mi South 4.6 mph - N/A   Overcast
2:35 PM 76.8 °F - 69.6 °F 78% 30.27 in 10.0 mi SE 3.5 mph - N/A   Mostly Cloudy
2:55 PM 76.8 °F - 70.0 °F 79% 30.27 in 10.0 mi SW 3.5 mph - N/A   Scattered Clouds
3:15 PM 79.9 °F - 64.8 °F 60% 30.26 in 10.0 mi WNW 11.5 mph - N/A   Mostly Cloudy
3:35 PM 80.1 °F 81.9 °F 65.1 °F 60% 30.26 in 10.0 mi West 11.5 mph - N/A   Scattered Clouds
3:55 PM 80.2 °F 82.2 °F 65.8 °F 61% 30.25 in 10.0 mi West 10.4 mph - N/A   Scattered Clouds
4:15 PM 80.1 °F 82.0 °F 65.3 °F 61% 30.26 in 10.0 mi WSW 4.6 mph - N/A   Clear
4:35 PM 78.1 °F - 68.4 °F 72% 30.25 in 10.0 mi SSE 4.6 mph - N/A   Scattered Clouds
4:55 PM 75.6 °F - 67.5 °F 76% 30.26 in 10.0 mi SSE 4.6 mph - N/A   Overcast
5:15 PM 74.8 °F - 67.5 °F 78% 30.27 in 10.0 mi SSE 6.9 mph - N/A   Mostly Cloudy
5:35 PM 73.8 °F - 68.0 °F 82% 30.26 in 10.0 mi SSE 6.9 mph - N/A Thunderstorm Thunderstorm
5:55 PM 70.9 °F - 63.7 °F 78% 30.29 in 10.0 mi East 11.5 mph 17.3 mph N/A Thunderstorm Thunderstorm
6:15 PM 67.1 °F - 62.1 °F 84% 30.27 in 10.0 mi SSE 5.8 mph - N/A Thunderstorm Thunderstorm
6:35 PM 68.0 °F - 62.1 °F 81% 30.27 in 10.0 mi SSW 3.5 mph - N/A Thunderstorm Mostly Cloudy
6:55 PM 67.5 °F - 62.6 °F 84% 30.27 in 10.0 mi Calm Calm - N/A   Mostly Cloudy
7:15 PM 67.6 °F - 63.9 °F 88% 30.26 in 10.0 mi Calm Calm - N/A Rain Light Rain
7:35 PM 67.3 °F - 64.4 °F 90% 30.27 in 5.0 mi SW 3.5 mph - 0.02 in Rain Heavy Rain
7:55 PM 66.9 °F - 64.6 °F 92% 30.27 in 10.0 mi WSW 4.6 mph - 0.02 in   Light Drizzle
8:15 PM 64.6 °F - 64.4 °F 99% 30.27 in 5.0 mi Calm Calm - N/A   Mostly Cloudy
8:35 PM 64.6 °F - 64.0 °F 98% 30.28 in 5.0 mi NNE 3.5 mph - N/A   Mostly Cloudy
8:55 PM 64.0 °F - 63.5 °F 98% 30.29 in 7.0 mi NE 5.8 mph - N/A   Mostly Cloudy
9:15 PM 63.5 °F - 63.0 °F 98% 30.29 in 10.0 mi NE 3.5 mph - N/A   Overcast
9:35 PM 64.2 °F - 63.1 °F 96% 30.28 in 10.0 mi Calm Calm - N/A   Scattered Clouds
9:55 PM 65.3 °F - 63.9 °F 95% 30.27 in 10.0 mi Calm Calm - N/A   Clear
10:15 PM 65.5 °F - 63.5 °F 93% 30.27 in 10.0 mi Calm Calm - N/A   Clear
10:35 PM 65.5 °F - 63.5 °F 93% 30.28 in 10.0 mi Calm Calm - N/A   Clear
10:55 PM 66.4 °F - 64.0 °F 92% 30.27 in 10.0 mi Calm Calm - N/A   Clear
11:15 PM 63.1 °F - 62.8 °F 99% 30.28 in 2.0 mi Calm Calm - N/A   Mostly Cloudy
11:35 PM 64.6 °F - 64.2 °F 99% 30.29 in 7.0 mi Calm Calm - N/A   Overcast
11:55 PM 64.8 °F - 64.4 °F 99% 30.28 in 7.0 mi Calm Calm - N/A   Overcast